• In Uzbekistan
  • List of Countries
  • For 7 days
  • Water Temperature
  • Satellite Maps
  • Weather Map
  • Weather Widgets
  • user-avatar
    Login

    Hourly Weather Yulara

    Today, 26 May, Saturday

    Time Temperature Precipitation Wind Pressure Humidity
    00:00 +18°C° 0 mm 4 mps 719 mmHg 32%
    01:00 +16°C° 0 mm 5 mps 719 mmHg 33%
    02:00 +16°C° 0 mm 5 mps 719 mmHg 33%
    03:00 +16°C° 0 mm 5 mps 719 mmHg 34%
    04:00 +15°C° 0 mm 4 mps 719 mmHg 35%
    05:00 +15°C° 0 mm 4 mps 719 mmHg 36%
    06:00 +16°C° 0 mm 3 mps 719 mmHg 36%
    07:00 +17°C° 0 mm 4 mps 719 mmHg 35%
    08:00 +19°C° 0 mm 4 mps 720 mmHg 34%
    09:00 +21°C° 0 mm 4 mps 720 mmHg 33%
    10:00 +23°C° 0 mm 5 mps 720 mmHg 30%
    11:00 +25°C° 0 mm 5 mps 720 mmHg 27%
    12:00 +27°C° 0 mm 5 mps 719 mmHg 23%
    13:00 +28°C° 0 mm 5 mps 719 mmHg 21%
    14:00 +29°C° 0 mm 4 mps 719 mmHg 20%
    15:00 +29°C° 0 mm 3 mps 718 mmHg 19%
    16:00 +27°C° 0 mm 2 mps 718 mmHg 22%
    17:00 +25°C° 0 mm 2 mps 718 mmHg 25%
    18:00 +23°C° 0 mm 1 mps 718 mmHg 27%
    19:00 +21°C° 0 mm 2 mps 718 mmHg 31%
    20:00 +21°C° 0 mm 3 mps 718 mmHg 35%
    21:00 +21°C° 0 mm 3 mps 718 mmHg 37%
    22:00 +20°C° 0 mm 3 mps 718 mmHg 38%
    23:00 +20°C° 0 mm 3 mps 718 mmHg 38%

    Tomorrow, 27 May, Sunday

    Time Temperature Precipitation Wind Pressure Humidity
    00:00 +20°C° 0 mm 3 mps 717 mmHg 39%
    01:00 +20°C° 0 mm 2 mps 717 mmHg 37%
    02:00 +20°C° 0 mm 2 mps 717 mmHg 36%
    03:00 +20°C° 0 mm 2 mps 717 mmHg 34%
    04:00 +19°C° 0 mm 3 mps 718 mmHg 39%
    05:00 +19°C° 0 mm 4 mps 718 mmHg 43%
    06:00 +19°C° 0 mm 5 mps 718 mmHg 47%
    07:00 +19°C° 0 mm 4 mps 719 mmHg 49%
    08:00 +19°C° 0 mm 4 mps 719 mmHg 51%
    09:00 +19°C° 0 mm 3 mps 719 mmHg 53%
    10:00 +21°C° 0 mm 4 mps 719 mmHg 46%
    11:00 +23°C° 0 mm 4 mps 719 mmHg 40%
    12:00 +26°C° 0 mm 5 mps 719 mmHg 33%
    13:00 +26°C° 0 mm 5 mps 718 mmHg 30%
    14:00 +27°C° 0 mm 5 mps 718 mmHg 27%
    15:00 +28°C° 0 mm 5 mps 718 mmHg 24%
    16:00 +26°C° 0 mm 3 mps 717 mmHg 27%
    17:00 +24°C° 0 mm 2 mps 717 mmHg 31%
    18:00 +22°C° 0 mm 1 mps 717 mmHg 35%
    19:00 +21°C° 0 mm 2 mps 718 mmHg 35%
    20:00 +21°C° 0 mm 2 mps 718 mmHg 35%
    21:00 +20°C° 0 mm 2 mps 719 mmHg 35%
    22:00 +20°C° 0 mm 2 mps 719 mmHg 39%
    23:00 +19°C° 0 mm 2 mps 719 mmHg 43%

    Day after tomorrow, 28 May, Monday

    Time Temperature Precipitation Wind Pressure Humidity
    00:00 +18°C° 0 mm 2 mps 719 mmHg 47%
    01:00 +17°C° 0 mm 3 mps 719 mmHg 50%
    02:00 +17°C° 0 mm 3 mps 719 mmHg 54%
    03:00 +17°C° 0 mm 3 mps 719 mmHg 58%
    04:00 +15°C° 0 mm 4 mps 719 mmHg 59%
    05:00 +15°C° 0 mm 4 mps 719 mmHg 60%
    06:00 +14°C° 0 mm 4 mps 719 mmHg 61%
    07:00 +17°C° 0 mm 4 mps 719 mmHg 56%
    08:00 +19°C° 0 mm 4 mps 720 mmHg 50%
    09:00 +20°C° 0 mm 4 mps 721 mmHg 44%
    10:00 +22°C° 0 mm 3 mps 720 mmHg 40%
    11:00 +25°C° 0 mm 2 mps 720 mmHg 35%
    12:00 +26°C° 0 mm 1 mps 720 mmHg 31%
    13:00 +27°C° 0 mm 1 mps 720 mmHg 29%
    14:00 +28°C° 0 mm 2 mps 719 mmHg 27%
    15:00 +28°C° 0 mm 2 mps 719 mmHg 25%
    16:00 +27°C° 0 mm 2 mps 719 mmHg 27%
    17:00 +25°C° 0 mm 2 mps 719 mmHg 30%
    18:00 +22°C° 0 mm 3 mps 719 mmHg 33%
    19:00 +21°C° 0 mm 4 mps 720 mmHg 34%
    20:00 +21°C° 0 mm 4 mps 720 mmHg 36%
    21:00 +20°C° 0 mm 5 mps 721 mmHg 37%
    22:00 +19°C° 0 mm 5 mps 721 mmHg 39%
    23:00 +19°C° 0 mm 5 mps 721 mmHg 40%

    29 May, Tuesday

    Time Temperature Precipitation Wind Pressure Humidity
    00:00 +17°C° 0 mm 5 mps 721 mmHg 41%
    01:00 +17°C° 0 mm 5 mps 721 mmHg 42%
    02:00 +16°C° 0 mm 5 mps 721 mmHg 44%
    03:00 +15°C° 0 mm 5 mps 721 mmHg 45%
    04:00 +15°C° 0 mm 5 mps 721 mmHg 47%
    05:00 +15°C° 0 mm 5 mps 722 mmHg 49%
    06:00 +14°C° 0 mm 5 mps 722 mmHg 51%
    07:00 +15°C° 0 mm 6 mps 722 mmHg 51%
    08:00 +16°C° 0 mm 7 mps 723 mmHg 51%
    09:00 +17°C° 0 mm 8 mps 724 mmHg 50%
    10:00 +18°C° 0 mm 8 mps 724 mmHg 47%
    11:00 +21°C° 0 mm 8 mps 724 mmHg 44%
    12:00 +23°C° 0 mm 8 mps 723 mmHg 41%
    13:00 +23°C° 0 mm 8 mps 723 mmHg 40%
    14:00 +23°C° 0 mm 7 mps 723 mmHg 39%
    15:00 +24°C° 0 mm 7 mps 722 mmHg 37%
    16:00 +23°C° 0 mm 7 mps 723 mmHg 41%
    17:00 +21°C° 0 mm 6 mps 723 mmHg 44%
    18:00 +20°C° 0 mm 6 mps 723 mmHg 47%
    19:00 +19°C° 0 mm 6 mps 724 mmHg 49%
    20:00 +17°C° 0 mm 7 mps 724 mmHg 51%
    21:00 +16°C° 0 mm 7 mps 725 mmHg 52%
    22:00 +15°C° 0 mm 7 mps 725 mmHg 53%
    23:00 +15°C° 0 mm 7 mps 725 mmHg 53%

    30 May, Wednesday

    Time Temperature Precipitation Wind Pressure Humidity
    00:00 +14°C° 0 mm 7 mps 725 mmHg 53%
    01:00 +13°C° 0 mm 6 mps 725 mmHg 52%
    02:00 +13°C° 0 mm 6 mps 724 mmHg 51%
    03:00 +11°C° 0 mm 6 mps 724 mmHg 51%
    04:00 +11°C° 0 mm 6 mps 725 mmHg 50%
    05:00 +10°C° 0 mm 6 mps 725 mmHg 50%
    06:00 +10°C° 0 mm 6 mps 725 mmHg 49%
    07:00 +11°C° 0 mm 7 mps 726 mmHg 46%
    08:00 +12°C° 0 mm 8 mps 726 mmHg 43%
    09:00 +13°C° 0 mm 9 mps 727 mmHg 40%
    10:00 +15°C° 0 mm 9 mps 726 mmHg 37%
    11:00 +17°C° 0 mm 9 mps 726 mmHg 34%
    12:00 +18°C° 0 mm 9 mps 726 mmHg 31%
    13:00 +19°C° 0 mm 9 mps 725 mmHg 30%
    14:00 +21°C° 0 mm 8 mps 724 mmHg 29%
    15:00 +21°C° 0 mm 8 mps 723 mmHg 28%
    16:00 +20°C° 0 mm 7 mps 724 mmHg 30%
    17:00 +17°C° 0 mm 7 mps 724 mmHg 32%
    18:00 +16°C° 0 mm 6 mps 724 mmHg 34%
    19:00 +15°C° 0 mm 6 mps 725 mmHg 35%
    20:00 +14°C° 0 mm 6 mps 725 mmHg 36%
    21:00 +13°C° 0 mm 6 mps 725 mmHg 37%
    22:00 +11°C° 0 mm 6 mps 725 mmHg 38%
    23:00 +11°C° 0 mm 6 mps 725 mmHg 39%

    31 May, Thursday

    Time Temperature Precipitation Wind Pressure Humidity
    00:00 +10°C° 0 mm 6 mps 725 mmHg 40%
    01:00 +9°C° 0 mm 6 mps 725 mmHg 40%
    02:00 +9°C° 0 mm 6 mps 725 mmHg 39%
    03:00 +8°C° 0 mm 5 mps 725 mmHg 38%
    04:00 +7°C° 0 mm 5 mps 726 mmHg 38%
    05:00 +7°C° 0 mm 5 mps 726 mmHg 38%
    06:00 +6°C° 0 mm 5 mps 726 mmHg 38%
    07:00 +7°C° 0 mm 6 mps 727 mmHg 36%
    08:00 +9°C° 0 mm 7 mps 727 mmHg 34%
    09:00 +10°C° 0 mm 8 mps 727 mmHg 31%
    10:00 +12°C° 0 mm 8 mps 727 mmHg 27%
    11:00 +16°C° 0 mm 8 mps 726 mmHg 22%
    12:00 +18°C° 0 mm 8 mps 726 mmHg 17%
    13:00 +18°C° 0 mm 8 mps 725 mmHg 16%
    14:00 +20°C° 0 mm 8 mps 724 mmHg 14%
    15:00 +21°C° 0 mm 8 mps 723 mmHg 12%
    16:00 +18°C° 0 mm 7 mps 723 mmHg 14%
    17:00 +17°C° 0 mm 6 mps 723 mmHg 16%
    18:00 +15°C° 0 mm 5 mps 723 mmHg 17%
    19:00 +14°C° 0 mm 5 mps 724 mmHg 19%
    20:00 +13°C° 0 mm 5 mps 724 mmHg 20%
    21:00 +12°C° 0 mm 5 mps 724 mmHg 22%
    22:00 +10°C° 0 mm 5 mps 724 mmHg 24%
    23:00 +9°C° 0 mm 5 mps 724 mmHg 26%
    Show more